Year,Month,Day,Hour,Minute,Value (Times are PST for temperature in C)
2010,06,29,09,12,14.30
2010,06,29,09,13,14.30
2010,06,29,09,14,14.30
2010,06,29,09,15,14.40
2010,06,29,09,16,14.40
2010,06,29,09,17,14.50
2010,06,29,09,18,14.50
2010,06,29,09,19,14.60
2010,06,29,09,20,14.60
2010,06,29,09,21,14.60
2010,06,29,09,22,14.70
2010,06,29,09,23,14.70
2010,06,29,09,24,14.70
2010,06,29,09,25,14.80
2010,06,29,09,26,14.80
2010,06,29,09,27,14.80
2010,06,29,09,28,14.80
2010,06,29,09,29,14.80
2010,06,29,09,30,14.90
2010,06,29,09,31,14.90
2010,06,29,09,32,14.90
2010,06,29,09,33,14.90
2010,06,29,09,34,14.90
2010,06,29,09,35,14.90
2010,06,29,09,36,14.90
2010,06,29,09,37,15.00
2010,06,29,09,38,15.00
2010,06,29,09,39,15.00
2010,06,29,09,40,15.00
2010,06,29,09,41,15.00
2010,06,29,09,42,15.00
2010,06,29,09,43,15.10
2010,06,29,09,44,15.20
2010,06,29,09,45,15.30
2010,06,29,09,46,15.40
2010,06,29,09,47,15.50
2010,06,29,09,48,15.70
2010,06,29,09,49,15.90
2010,06,29,09,50,16.00
2010,06,29,09,51,16.10
2010,06,29,09,52,16.10
2010,06,29,09,53,16.20
2010,06,29,09,54,16.30
2010,06,29,09,55,16.40
2010,06,29,09,56,16.60
2010,06,29,09,57,16.80
2010,06,29,09,58,16.80
2010,06,29,09,59,16.90
2010,06,29,10,00,16.80
2010,06,29,10,01,16.80
2010,06,29,10,02,16.70
2010,06,29,10,03,16.70
2010,06,29,10,04,16.70
2010,06,29,10,05,16.70
2010,06,29,10,06,16.70
2010,06,29,10,07,16.70
2010,06,29,10,08,16.70
2010,06,29,10,09,16.60
2010,06,29,10,10,16.60
2010,06,29,10,11,16.60
2010,06,29,10,12,16.50
2010,06,29,10,13,16.40
2010,06,29,10,14,16.40
2010,06,29,10,15,16.30
2010,06,29,10,16,16.30
2010,06,29,10,17,16.30
2010,06,29,10,18,16.40
2010,06,29,10,19,16.40
2010,06,29,10,20,16.40
2010,06,29,10,21,16.40
2010,06,29,10,22,16.40
2010,06,29,10,23,16.40
2010,06,29,10,24,16.30
2010,06,29,10,25,16.20
2010,06,29,10,26,16.20
2010,06,29,10,27,16.10
2010,06,29,10,28,16.10
2010,06,29,10,29,16.00
2010,06,29,10,30,15.90
2010,06,29,10,31,15.90
2010,06,29,10,32,15.80
2010,06,29,10,33,15.80
2010,06,29,10,34,15.70
2010,06,29,10,35,15.60
2010,06,29,10,36,15.50
2010,06,29,10,37,15.40
2010,06,29,10,38,15.30
2010,06,29,10,39,15.30
2010,06,29,10,40,15.30
2010,06,29,10,41,15.20
2010,06,29,10,42,15.20
2010,06,29,10,43,15.20
2010,06,29,10,44,15.20
2010,06,29,10,45,15.20
2010,06,29,10,46,15.10
2010,06,29,10,47,15.10
2010,06,29,10,48,15.10
2010,06,29,10,49,15.00
2010,06,29,10,50,15.00
2010,06,29,10,51,15.00
2010,06,29,10,52,15.00
2010,06,29,10,53,15.00
2010,06,29,10,54,15.00
2010,06,29,10,55,15.00
2010,06,29,10,56,15.00
2010,06,29,10,57,15.00
2010,06,29,10,58,15.00
2010,06,29,10,59,15.00
2010,06,29,11,00,15.00
2010,06,29,11,01,15.00
2010,06,29,11,02,15.00
2010,06,29,11,03,15.00
2010,06,29,11,04,15.00
2010,06,29,11,05,15.00
2010,06,29,11,06,15.00
2010,06,29,11,07,15.00
2010,06,29,11,08,15.00
2010,06,29,11,09,15.00
2010,06,29,11,10,15.00
2010,06,29,11,11,15.00
2010,06,29,11,12,15.00
2010,06,29,11,13,15.00
2010,06,29,11,14,15.00
2010,06,29,11,15,15.00
2010,06,29,11,16,15.10
2010,06,29,11,17,15.20
2010,06,29,11,18,15.40
2010,06,29,11,19,15.50
2010,06,29,11,20,15.70
2010,06,29,11,21,15.90
2010,06,29,11,22,16.00
2010,06,29,11,23,16.20
2010,06,29,11,24,16.30
2010,06,29,11,25,16.40
2010,06,29,11,26,16.50
2010,06,29,11,27,16.60
2010,06,29,11,28,16.60
2010,06,29,11,29,16.50
2010,06,29,11,30,16.40
2010,06,29,11,31,16.20
2010,06,29,11,32,16.10
2010,06,29,11,33,16.00
2010,06,29,11,34,15.90
2010,06,29,11,35,15.90
2010,06,29,11,36,15.90
2010,06,29,11,37,15.90
2010,06,29,11,38,16.00
2010,06,29,11,39,16.00
2010,06,29,11,40,16.10
2010,06,29,11,41,16.10
2010,06,29,11,42,16.10
2010,06,29,11,43,16.10
2010,06,29,11,44,16.00
2010,06,29,11,45,15.90
2010,06,29,11,46,15.80
2010,06,29,11,47,15.80
2010,06,29,11,48,15.80
2010,06,29,11,49,15.80
2010,06,29,11,50,15.70
2010,06,29,11,51,15.60
2010,06,29,11,52,15.40
2010,06,29,11,53,15.20
2010,06,29,11,54,15.00
2010,06,29,11,55,15.00
2010,06,29,11,56,14.90
2010,06,29,11,57,14.80
2010,06,29,11,58,14.60
2010,06,29,11,59,14.50
2010,06,29,12,00,14.40
2010,06,29,12,01,14.30
2010,06,29,12,02,14.30
2010,06,29,12,03,14.20
2010,06,29,12,04,14.20
2010,06,29,12,05,14.20
2010,06,29,12,06,14.20
2010,06,29,12,07,14.30
2010,06,29,12,08,14.40
2010,06,29,12,09,14.40
2010,06,29,12,10,14.50
2010,06,29,12,11,14.60
2010,06,29,12,12,14.80
2010,06,29,12,13,14.90
2010,06,29,12,14,15.00
2010,06,29,12,15,15.00
2010,06,29,12,16,15.00
2010,06,29,12,17,15.00
2010,06,29,12,18,15.00
2010,06,29,12,19,15.00
2010,06,29,12,20,15.00
2010,06,29,12,21,15.00
2010,06,29,12,22,15.00
2010,06,29,12,23,15.00
2010,06,29,12,24,15.00
2010,06,29,12,25,15.00
2010,06,29,12,26,14.90
2010,06,29,12,27,15.00
2010,06,29,12,28,15.00
2010,06,29,12,29,15.00
2010,06,29,12,30,15.20
2010,06,29,12,31,15.20
2010,06,29,12,32,15.30
2010,06,29,12,33,15.30
2010,06,29,12,34,15.40
2010,06,29,12,35,15.40
2010,06,29,12,36,15.40
2010,06,29,12,37,15.40
2010,06,29,12,38,15.40
2010,06,29,12,39,15.50
2010,06,29,12,40,15.50
2010,06,29,12,41,15.50
2010,06,29,12,42,15.50
2010,06,29,12,43,15.40
2010,06,29,12,44,15.40
2010,06,29,12,45,15.30
2010,06,29,12,46,15.30
2010,06,29,12,47,15.30
2010,06,29,12,48,15.30
2010,06,29,12,49,15.30
2010,06,29,12,50,15.20
2010,06,29,12,51,15.10
2010,06,29,12,52,15.00
2010,06,29,12,53,14.90
2010,06,29,12,54,14.70
2010,06,29,12,55,14.60
2010,06,29,12,56,14.60
2010,06,29,12,57,14.60
2010,06,29,12,58,14.60
2010,06,29,12,59,14.60
2010,06,29,13,00,14.60
2010,06,29,13,01,14.50
2010,06,29,13,02,14.40
2010,06,29,13,03,14.40
2010,06,29,13,04,14.30
2010,06,29,13,05,14.30
2010,06,29,13,06,14.20
2010,06,29,13,07,14.30
2010,06,29,13,08,14.30
2010,06,29,13,09,14.40
2010,06,29,13,10,14.50
2010,06,29,13,11,14.60
2010,06,29,13,12,14.60
2010,06,29,13,13,14.60
2010,06,29,13,14,14.50
2010,06,29,13,15,14.50
2010,06,29,13,16,14.40
2010,06,29,13,17,14.50
2010,06,29,13,18,14.50
2010,06,29,13,19,14.40
2010,06,29,13,20,14.40
2010,06,29,13,21,14.50
2010,06,29,13,22,14.50
2010,06,29,13,23,14.60
2010,06,29,13,24,14.70
2010,06,29,13,25,14.90
2010,06,29,13,26,15.00
2010,06,29,13,27,15.00
2010,06,29,13,28,15.00
2010,06,29,13,29,15.20
2010,06,29,13,30,15.30
2010,06,29,13,31,15.40
2010,06,29,13,32,15.40
2010,06,29,13,33,15.40
2010,06,29,13,34,15.40
2010,06,29,13,35,15.40
2010,06,29,13,36,15.50
2010,06,29,13,37,15.50
2010,06,29,13,38,15.50
2010,06,29,13,39,15.50
2010,06,29,13,40,15.60
2010,06,29,13,41,15.60
2010,06,29,13,42,15.60
2010,06,29,13,43,15.70
2010,06,29,13,44,15.70
2010,06,29,13,45,15.80
2010,06,29,13,46,15.70
2010,06,29,13,47,15.80
2010,06,29,13,48,15.80
2010,06,29,13,49,15.80
2010,06,29,13,50,15.80
2010,06,29,13,51,15.80
2010,06,29,13,52,15.90
2010,06,29,13,53,15.90
2010,06,29,13,54,16.00
2010,06,29,13,55,16.00
2010,06,29,13,56,16.20
2010,06,29,13,57,16.20
2010,06,29,13,58,16.10
2010,06,29,13,59,16.00
2010,06,29,14,00,15.90
2010,06,29,14,01,15.90
2010,06,29,14,02,15.80
2010,06,29,14,03,15.70
2010,06,29,14,04,15.70
2010,06,29,14,05,15.80
2010,06,29,14,06,15.80
2010,06,29,14,07,15.90
2010,06,29,14,08,15.90
2010,06,29,14,09,15.90
2010,06,29,14,10,15.90
2010,06,29,14,11,15.90
2010,06,29,14,12,15.80
2010,06,29,14,13,15.80
2010,06,29,14,14,15.80
2010,06,29,14,15,15.90
2010,06,29,14,16,16.00
2010,06,29,14,17,16.00
2010,06,29,14,18,16.00
2010,06,29,14,19,16.10
2010,06,29,14,20,16.10
2010,06,29,14,21,16.20
2010,06,29,14,22,16.20
2010,06,29,14,23,16.30
2010,06,29,14,24,16.40
2010,06,29,14,25,16.60
2010,06,29,14,26,16.60
2010,06,29,14,27,16.60
2010,06,29,14,28,16.70
2010,06,29,14,29,16.70
2010,06,29,14,30,16.70
2010,06,29,14,31,16.80
2010,06,29,14,32,16.70
2010,06,29,14,33,16.70
2010,06,29,14,34,16.70
2010,06,29,14,35,16.70
2010,06,29,14,36,16.70
2010,06,29,14,37,16.70
2010,06,29,14,38,16.80
2010,06,29,14,39,17.00
2010,06,29,14,40,17.00
2010,06,29,14,41,17.10
2010,06,29,14,42,17.10
2010,06,29,14,43,17.10
2010,06,29,14,44,17.10
2010,06,29,14,45,17.00
2010,06,29,14,46,17.10
2010,06,29,14,47,17.10
2010,06,29,14,48,17.00
2010,06,29,14,49,17.00
2010,06,29,14,50,17.10
2010,06,29,14,51,17.10
2010,06,29,14,52,17.10
2010,06,29,14,53,17.10
2010,06,29,14,54,17.10
2010,06,29,14,55,17.00
2010,06,29,14,56,17.00
2010,06,29,14,57,17.00
2010,06,29,14,58,17.00
2010,06,29,14,59,16.90
2010,06,29,15,00,16.90
2010,06,29,15,01,16.90
2010,06,29,15,02,16.80
2010,06,29,15,03,16.80
2010,06,29,15,04,16.90
2010,06,29,15,05,16.90
2010,06,29,15,06,16.90
2010,06,29,15,07,16.80
2010,06,29,15,08,16.80
2010,06,29,15,09,16.80
2010,06,29,15,10,16.70
2010,06,29,15,11,16.70
2010,06,29,15,12,16.60
2010,06,29,15,13,16.60
2010,06,29,15,14,16.50
2010,06,29,15,15,16.40
2010,06,29,15,16,16.30
2010,06,29,15,17,16.30
2010,06,29,15,18,16.20
2010,06,29,15,19,16.20
2010,06,29,15,20,16.20
2010,06,29,15,21,16.30
2010,06,29,15,22,16.30
2010,06,29,15,23,16.20
2010,06,29,15,24,16.20
2010,06,29,15,25,16.30
2010,06,29,15,26,16.30
2010,06,29,15,27,16.40
2010,06,29,15,28,16.40
2010,06,29,15,29,16.40
2010,06,29,15,30,16.40
2010,06,29,15,31,16.30
2010,06,29,15,32,16.20
2010,06,29,15,33,16.20
2010,06,29,15,34,16.30
2010,06,29,15,35,16.40
2010,06,29,15,36,16.60
2010,06,29,15,37,16.70
2010,06,29,15,38,16.70
2010,06,29,15,39,16.70
2010,06,29,15,40,16.70
2010,06,29,15,41,16.50
2010,06,29,15,42,16.40
2010,06,29,15,43,16.30
2010,06,29,15,44,16.20
2010,06,29,15,45,16.10
2010,06,29,15,46,16.10
2010,06,29,15,47,16.10
2010,06,29,15,48,16.00
2010,06,29,15,49,15.90
2010,06,29,15,50,15.90
2010,06,29,15,51,15.90
2010,06,29,15,52,16.00
2010,06,29,15,53,16.10
2010,06,29,15,54,16.10
2010,06,29,15,55,16.20
2010,06,29,15,56,16.30
2010,06,29,15,57,16.30
2010,06,29,15,58,16.20
2010,06,29,15,59,16.30
2010,06,29,16,00,16.30
2010,06,29,16,01,16.30
2010,06,29,16,02,16.20
2010,06,29,16,03,16.30
2010,06,29,16,04,16.30
2010,06,29,16,05,16.30
2010,06,29,16,06,16.40
2010,06,29,16,07,16.40
2010,06,29,16,08,16.40
2010,06,29,16,09,16.40
2010,06,29,16,10,16.40
2010,06,29,16,11,16.50
2010,06,29,16,12,16.40
2010,06,29,16,13,16.40
2010,06,29,16,14,16.40
2010,06,29,16,15,16.40
2010,06,29,16,16,16.40
2010,06,29,16,17,16.50
2010,06,29,16,18,16.60
2010,06,29,16,19,16.60
2010,06,29,16,20,16.70
2010,06,29,16,21,16.70
2010,06,29,16,22,16.80
2010,06,29,16,23,16.90
2010,06,29,16,24,17.00
2010,06,29,16,25,17.10
2010,06,29,16,26,17.10
2010,06,29,16,27,17.00
2010,06,29,16,28,17.10
2010,06,29,16,29,17.00
2010,06,29,16,30,16.90
2010,06,29,16,31,16.80
2010,06,29,16,32,16.80
2010,06,29,16,33,16.70
2010,06,29,16,34,16.60
2010,06,29,16,35,16.60
2010,06,29,16,36,16.40
2010,06,29,16,37,16.30
2010,06,29,16,38,16.20
2010,06,29,16,39,16.10
2010,06,29,16,40,16.10
2010,06,29,16,41,16.00
2010,06,29,16,42,16.00
2010,06,29,16,43,15.90
2010,06,29,16,44,15.80
2010,06,29,16,45,15.90
2010,06,29,16,46,15.90
2010,06,29,16,47,16.00
2010,06,29,16,48,16.10
2010,06,29,16,49,16.20
2010,06,29,16,50,16.30
2010,06,29,16,51,16.50
2010,06,29,16,52,16.50
2010,06,29,16,53,16.60
2010,06,29,16,54,16.70
2010,06,29,16,55,16.80
2010,06,29,16,56,16.90
2010,06,29,16,57,17.00
2010,06,29,16,58,17.00
2010,06,29,16,59,17.00
2010,06,29,17,00,16.90
2010,06,29,17,01,16.90
2010,06,29,17,02,16.80
2010,06,29,17,03,16.80
2010,06,29,17,04,16.90
2010,06,29,17,05,16.90
2010,06,29,17,06,16.90
2010,06,29,17,07,16.90
2010,06,29,17,08,16.70
2010,06,29,17,09,16.60
2010,06,29,17,10,16.50
2010,06,29,17,11,16.40
2010,06,29,17,12,16.40
2010,06,29,17,13,16.30
2010,06,29,17,14,16.10
2010,06,29,17,15,15.90
2010,06,29,17,16,15.80
2010,06,29,17,17,15.80
2010,06,29,17,18,15.80
2010,06,29,17,19,15.80
2010,06,29,17,20,15.80
2010,06,29,17,21,15.80
2010,06,29,17,22,15.80
2010,06,29,17,23,15.80
2010,06,29,17,24,15.80
2010,06,29,17,25,15.90
2010,06,29,17,26,15.90
2010,06,29,17,27,15.90
2010,06,29,17,28,15.90
2010,06,29,17,29,15.90
2010,06,29,17,30,15.90
2010,06,29,17,31,15.80
2010,06,29,17,32,15.80
2010,06,29,17,33,15.80
2010,06,29,17,34,15.80
2010,06,29,17,35,15.90
2010,06,29,17,36,15.90
2010,06,29,17,37,16.00
2010,06,29,17,38,16.10
2010,06,29,17,39,16.10
2010,06,29,17,40,16.20
2010,06,29,17,41,16.20
2010,06,29,17,42,16.20
2010,06,29,17,43,16.30
2010,06,29,17,44,16.30
2010,06,29,17,45,16.30
2010,06,29,17,46,16.40
2010,06,29,17,47,16.50
2010,06,29,17,48,16.60
2010,06,29,17,49,16.70
2010,06,29,17,50,16.80
2010,06,29,17,51,16.90
2010,06,29,17,52,17.00
2010,06,29,17,53,17.00
2010,06,29,17,54,17.00
2010,06,29,17,55,17.10
2010,06,29,17,56,17.00
2010,06,29,17,57,17.00
2010,06,29,17,58,16.90
2010,06,29,17,59,16.90
2010,06,29,18,00,16.90
2010,06,29,18,01,16.90
2010,06,29,18,02,17.00
2010,06,29,18,03,17.00
2010,06,29,18,04,17.00
2010,06,29,18,05,17.00
2010,06,29,18,06,17.00
2010,06,29,18,07,17.00
2010,06,29,18,08,16.90
2010,06,29,18,09,16.80
2010,06,29,18,10,16.80
2010,06,29,18,11,16.80
2010,06,29,18,12,16.80
2010,06,29,18,13,16.80
2010,06,29,18,14,16.90
2010,06,29,18,15,16.80
2010,06,29,18,16,16.80
2010,06,29,18,17,16.90
2010,06,29,18,18,16.90
2010,06,29,18,19,17.00
2010,06,29,18,20,17.00
2010,06,29,18,21,17.10
2010,06,29,18,22,17.20
2010,06,29,18,23,17.20
2010,06,29,18,24,17.20
2010,06,29,18,25,17.20
2010,06,29,18,26,17.20
2010,06,29,18,27,17.10
2010,06,29,18,28,17.10
2010,06,29,18,29,17.10
2010,06,29,18,30,17.10
2010,06,29,18,31,17.10
2010,06,29,18,32,17.10
2010,06,29,18,33,17.10
2010,06,29,18,34,17.20
2010,06,29,18,35,17.30
2010,06,29,18,36,17.30
2010,06,29,18,37,17.40
2010,06,29,18,38,17.50
2010,06,29,18,39,17.60
2010,06,29,18,40,17.60
2010,06,29,18,41,17.60
2010,06,29,18,42,17.70
2010,06,29,18,43,17.70
2010,06,29,18,44,17.70
2010,06,29,18,45,17.70
2010,06,29,18,46,17.70
2010,06,29,18,47,17.80
2010,06,29,18,48,17.80
2010,06,29,18,49,17.90
2010,06,29,18,50,17.90
2010,06,29,18,51,17.90
2010,06,29,18,52,17.90
2010,06,29,18,53,17.80
2010,06,29,18,54,17.80
2010,06,29,18,55,17.80
2010,06,29,18,56,17.90
2010,06,29,18,57,17.80
2010,06,29,18,58,17.70
2010,06,29,18,59,17.70
2010,06,29,19,00,17.80
2010,06,29,19,01,17.80
2010,06,29,19,02,17.80
2010,06,29,19,03,17.70
2010,06,29,19,04,17.70
2010,06,29,19,05,17.60
2010,06,29,19,06,17.60
2010,06,29,19,07,17.60
2010,06,29,19,08,17.50
2010,06,29,19,09,17.50
2010,06,29,19,10,17.60
2010,06,29,19,11,17.60
2010,06,29,19,12,17.60
2010,06,29,19,13,17.60
2010,06,29,19,14,17.60
2010,06,29,19,15,17.60
2010,06,29,19,16,17.60
2010,06,29,19,17,17.50
2010,06,29,19,18,17.40
2010,06,29,19,19,17.40
2010,06,29,19,20,17.40
2010,06,29,19,21,17.40
2010,06,29,19,22,17.40
2010,06,29,19,23,17.40
2010,06,29,19,24,17.40
2010,06,29,19,25,17.40
2010,06,29,19,26,17.40
2010,06,29,19,27,17.40
2010,06,29,19,28,17.40
2010,06,29,19,29,17.40
